Rockford, IL

10:02 AM CST on December 16, 2017 (GMT -0600)
Greater Rockford

Weather History for KRFD - November, 2012

Change the Weather History Date:

Saturday, November 24, 2012

  Actual Average Record
Temperature  
Mean Temperature 29 °F 34 °F  
Max Temperature 34 °F 43 °F 65 °F (1931)
Min Temperature 24 °F 26 °F -6 °F (1950)
Degree Days  
Heating Degree Days 36 30  
Month to date heating degree days 573 588  
Since 1 July heating degree days 1166 1141  
Cooling Degree Days 0 0  
Month to date cooling degree days 0 0  
Year to date cooling degree days 1227 820  
Moisture  
Dew Point 17 °F    
Average Humidity 61    
Maximum Humidity 69    
Minimum Humidity 53    
Precipitation  
Precipitation 0.00 in 0.08 in 1.06 in (2001)
Month to date precipitation 0.60 2.09  
Year to date precipitation 20.86 33.77  
Snow  
Snow 0.00 in 0.10 in 4.00 in (1947)
Month to date snowfall T 0.9  
Since 1 July snowfall T 1.0  
Since 1 September snowfall T 1.0  
Snow Depth 0.00 in    
Sea Level Pressure  
Sea Level Pressure 30.18 in    
Wind  
Wind Speed 8 mph (WSW)    
Max Wind Speed 17 mph    
Max Gust Speed 21 mph    
Visibility 10 miles    
Events      
T = Trace of Precipitation, MM = Missing Value Source: NWS Daily Summary

Daily Weather History Graph

Daily Weather History Graph

Search for Another Location

Airport or City:

Trip Planner

Search our weather history database for the weather conditions in past years. The results will help you decide how hot, cold, wet, or windy it might be!

Date:

Astronomy

Nov. 24, 2012 Rise Set
Actual Time 6:58 AM CST 4:28 PM CST
Civil Twilight 6:27 AM CST 4:58 PM CST
Nautical Twilight 5:52 AM CST 5:33 PM CST
Astronomical Twilight 5:19 AM CST 6:06 PM CST
Moon 2:15 PM CST (11/24) 3:11 AM CST (11/24)
Length of Visible Light 10h 31m
Length of Day
9h 29m
Waxing Gibbous, 87% of the Moon is Illuminated
Nov 24
Waxing Gibbous
Nov 28
Full
Dec 6
Last Quarter
Dec 13
New
Dec 19
First Quarter

Hourly Weather History & Observations

Time (CST) Temp. Windchill Dew Point Humidity Pressure Visibility Wind Dir Wind Speed Gust Speed Precip Events Conditions
12:54 AM 27.0 °F 16.1 °F 16.0 °F 63% 30.27 in 10.0 mi North 12.7 mph - N/A   Overcast
1:54 AM 26.1 °F 15.6 °F 15.1 °F 63% 30.28 in 10.0 mi North 11.5 mph - N/A   Overcast
2:54 AM 25.0 °F 14.8 °F 15.1 °F 66% 30.29 in 10.0 mi NNW 10.4 mph - N/A   Overcast
3:54 AM 25.0 °F 14.2 °F 15.1 °F 66% 30.28 in 10.0 mi NNW 11.5 mph - N/A   Overcast
4:54 AM 25.0 °F 15.5 °F 15.1 °F 66% 30.28 in 10.0 mi NNW 9.2 mph - N/A   Overcast
5:54 AM 25.0 °F 14.2 °F 15.1 °F 66% 30.29 in 10.0 mi NNW 11.5 mph - N/A   Overcast
6:54 AM 24.1 °F 16.0 °F 14.0 °F 65% 30.29 in 10.0 mi NW 6.9 mph - N/A   Overcast
7:54 AM 25.0 °F 18.1 °F 15.1 °F 66% 30.29 in 10.0 mi NNW 5.8 mph - N/A   Mostly Cloudy
8:54 AM 26.1 °F 18.4 °F 15.1 °F 63% 30.30 in 10.0 mi North 6.9 mph - N/A   Overcast
9:54 AM 27.0 °F 19.5 °F 16.0 °F 63% 30.30 in 10.0 mi West 6.9 mph - N/A   Mostly Cloudy
10:54 AM 30.0 °F - 16.0 °F 56% 30.28 in 10.0 mi Calm Calm - N/A   Scattered Clouds
11:54 AM 30.0 °F 24.1 °F 16.0 °F 56% 30.25 in 10.0 mi WSW 5.8 mph - N/A   Partly Cloudy
12:54 PM 32.0 °F 28.7 °F 17.1 °F 54% 30.22 in 10.0 mi WSW 3.5 mph - N/A   Clear
1:54 PM 32.0 °F 26.4 °F 18.0 °F 56% 30.19 in 10.0 mi SSW 5.8 mph - N/A   Clear
2:54 PM 33.1 °F 26.9 °F 19.0 °F 56% 30.16 in 10.0 mi SW 6.9 mph - N/A   Clear
3:54 PM 30.9 °F 24.3 °F 18.0 °F 59% 30.16 in 10.0 mi SW 6.9 mph - N/A   Scattered Clouds
4:54 PM 30.0 °F 23.2 °F 18.0 °F 61% 30.13 in 10.0 mi SSW 6.9 mph - N/A   Mostly Cloudy
5:54 PM 30.0 °F 24.1 °F 19.0 °F 64% 30.10 in 10.0 mi South 5.8 mph - N/A   Overcast
6:54 PM 30.9 °F 22.2 °F 19.9 °F 64% 30.07 in 10.0 mi South 10.4 mph - N/A   Overcast
7:54 PM 30.9 °F 21.7 °F 21.0 °F 67% 30.05 in 10.0 mi SSW 11.5 mph - N/A   Overcast
8:54 PM 30.0 °F 21.7 °F 19.9 °F 66% 30.04 in 10.0 mi South 9.2 mph - N/A   Overcast
9:54 PM 30.0 °F 21.7 °F 21.0 °F 69% 30.02 in 10.0 mi South 9.2 mph - N/A   Overcast
10:54 PM 30.0 °F 20.5 °F 21.0 °F 69% 30.01 in 10.0 mi SSW 11.5 mph - N/A   Overcast
11:54 PM 30.0 °F 20.5 °F 21.0 °F 69% 29.96 in 10.0 mi South 11.5 mph - N/A   Overcast